Simultaneous Nadir Overpasses (SNOs) Predictions

Prediction of SNOs between METOP-B and TERRA Satellite Orbit:

Table of predicted SNOs for the next 14.0 days since TLE Epoch: 12/24/2022
Index Date (METOP-B) Time (METOP-B) Lat,Lon (METOP-B) SZA (METOP-B ) Date (TERRA) Time (TERRA) Lat,Lon (TERRA) SZA (TERRA ) Distance(km) Time Diff (sec)
1 12/24/2022 10:26:28 -81.00,-120.02 73.94 12/24/2022 10:26:44 -80.99,-120.18 73.96 2.97 16
2 12/24/2022 11:17:07 81.03, 48.00 106.15 12/24/2022 11:16:05 81.03, 48.07 106.13 1.36 62
3 12/27/2022 02:38:07 -80.99, -2.99 74.06 12/27/2022 02:38:21 -80.99, -3.11 74.07 2.16 14
4 12/27/2022 03:28:46 81.02, 165.02 106.03 12/27/2022 03:27:42 81.03, 165.15 106.02 2.53 64
5 12/29/2022 18:49:46 -81.01, 114.35 74.20 12/29/2022 18:49:58 -81.00, 114.18 74.21 3.02 12
6 12/29/2022 19:40:26 81.02, -78.03 105.84 12/29/2022 19:39:20 81.02, -77.91 105.83 2.01 66
7 01/01/2023 11:01:27 -80.98,-129.09 74.48 01/01/2023 11:01:36 -80.98,-129.02 74.47 1.17 9
8 01/01/2023 11:52:05 81.03, 39.24 105.65 01/01/2023 11:50:57 81.03, 39.23 105.62 0.39 68
9 01/04/2023 03:13:06 -80.99, -11.86 74.74 01/04/2023 03:13:13 -80.98, -12.01 74.76 2.97 7
10 01/04/2023 04:03:44 81.02, 156.09 105.34 01/04/2023 04:02:33 81.02, 156.24 105.33 2.79 71
11 01/06/2023 19:24:44 -80.99, 105.32 75.05 01/06/2023 19:24:48 -80.99, 105.21 75.06 2.04 4



Historial Predications of SNOs between METOP-B and TERRA
